OK2ILA-6 Weather Reports


Display with metric or nautical units.
time (UTC)temp
F
wind
direction
speed
MPH
gust
MPH
rain 1hr
in
rain 24hr
in
rain mn
in
humidity
%
barometer
mb
20260905160002 72 0.0 0.0 0.00 0.00 0.00 44 1017.6
20260905155003 72 0.0 0.0 0.00 0.00 0.00 44 1017.4
20260905154003 74 0.0 0.0 0.00 0.00 0.00 44 1017.4
20260905153003 74 0.0 0.0 0.00 0.00 0.00 43 1017.4
20260905152003 74 0.0 0.0 0.00 0.00 0.00 42 1017.4
20260905151002 74 0.0 0.0 0.00 0.00 0.00 42 1017.4
20260905150003 74 0.0 0.0 0.00 0.00 0.00 41 1017.3
20260905145003 74 0.0 0.0 0.00 0.00 0.00 41 1017.2
20260905144003 74 0.0 0.0 0.00 0.00 0.00 39 1017.0
20260905143003 74 0.0 0.0 0.00 0.00 0.00 42 1017.2
20260905142002 74 0.0 0.0 0.00 0.00 0.00 42 1017.1
20260905141003 74 0.0 0.0 0.00 0.00 0.00 42 1017.2
20260905140003 73 0.0 0.0 0.00 0.00 0.00 44 1017.1
20260905135003 74 0.0 0.0 0.00 0.00 0.00 45 1017.1
20260905134003 74 0.0 0.0 0.00 0.00 0.00 44 1017.0
20260905133002 74 0.0 0.0 0.00 0.00 0.00 44 1017.0
20260905132003 74 0.0 0.0 0.00 0.00 0.00 45 1017.0
20260905131003 74 0.0 0.0 0.00 0.00 0.00 45 1017.0
20260905130003 75 0.0 0.0 0.00 0.00 0.00 44 1016.7
20260905125002 74 0.0 0.0 0.00 0.00 0.00 42 1017.2
20260905124002 75 0.0 0.0 0.00 0.00 0.00 45 1017.2
20260905123003 74 0.0 0.0 0.00 0.00 0.00 45 1017.2
20260905122003 76 0.0 0.0 0.00 0.00 0.00 44 1017.1
20260905121003 75 0.0 0.0 0.00 0.00 0.00 44 1017.1
20260905120002 76 0.0 0.0 0.00 0.00 0.00 43 1017.2
20260905115002 74 0.0 0.0 0.00 0.00 0.00 46 1017.2
20260905114003 75 0.0 0.0 0.00 0.00 0.00 46 1017.2
20260905113003 74 0.0 0.0 0.00 0.00 0.00 46 1017.3
20260905112003 74 0.0 0.0 0.00 0.00 0.00 45 1017.4
20260905111002 74 0.0 0.0 0.00 0.00 0.00 46 1017.3
20260905110003 74 0.0 0.0 0.00 0.00 0.00 46 1017.4
20260905105003 74 0.0 0.0 0.00 0.00 0.00 46 1017.2
20260905104003 74 0.0 0.0 0.00 0.00 0.00 47 1017.2
20260905103003 74 0.0 0.0 0.00 0.00 0.00 48 1017.3
20260905102002 74 0.0 0.0 0.00 0.00 0.00 48 1017.3
20260905101003 74 0.0 0.0 0.00 0.00 0.00 49 1017.4
20260905100003 74 0.0 0.0 0.00 0.00 0.00 50 1017.5
20260905095003 73 0.0 0.0 0.00 0.00 0.00 50 1017.3
20260905094003 72 0.0 0.0 0.00 0.00 0.00 52 1017.4
20260905093002 72 0.0 0.0 0.00 0.00 0.00 50 1017.6
20260905092003 72 0.0 0.0 0.00 0.00 0.00 54 1017.2
20260905091003 72 0.0 0.0 0.00 0.00 0.00 58 1017.4
20260905090003 71 0.0 0.0 0.00 0.00 0.00 58 1017.4
20260905085002 70 0.0 0.0 0.00 0.00 0.00 62 1017.6
20260905084002 68 0.0 0.0 0.00 0.00 0.00 64 1017.6
20260905083003 68 0.0 0.0 0.00 0.00 0.00 67 1017.6
20260905082003 66 0.0 0.0 0.00 0.00 0.00 70 1017.4
20260905081003 65 0.0 0.0 0.00 0.00 0.00 72 1017.3
20260905080002 64 0.0 0.0 0.00 0.00 0.00 74 1017.0
20260905075002 64 0.0 0.0 0.00 0.00 0.00 74 1017.3
20260905074003 64 0.0 0.0 0.00 0.00 0.00 75 1017.0
20260905073003 64 0.0 0.0 0.00 0.00 0.00 76 1017.3
20260905072003 64 0.0 0.0 0.00 0.00 0.00 78 1017.3
20260905071002 63 0.0 0.0 0.00 0.00 0.00 78 1017.0
20260905070003 62 0.0 0.0 0.00 0.00 0.00 78 1017.0
20260905065003 62 0.0 0.0 0.00 0.00 0.00 78 1016.9
20260905064003 62 0.0 0.0 0.00 0.00 0.00 78 1017.0
20260905063003 62 0.0 0.0 0.00 0.00 0.00 79 1017.0
20260905062003 63 0.0 0.0 0.00 0.00 0.00 78 1016.6
20260905061003 62 0.0 0.0 0.00 0.00 0.00 77 1016.2
20260905060003 62 0.0 0.0 0.00 0.00 0.00 74 1016.0
20260905055003 62 0.0 0.0 0.00 0.00 0.00 73 1016.0
20260905054003 63 0.0 0.0 0.00 0.00 0.00 72 1015.6
20260905053002 63 0.0 0.0 0.00 0.00 0.00 72 1015.7
20260905052003 64 0.0 0.0 0.00 0.00 0.00 64 1016.0
20260905051003 65 0.0 0.0 0.00 0.00 0.00 61 1015.8
20260905050003 66 0.0 0.0 0.00 0.00 0.00 61 1015.6
20260905045002 67 0.0 0.0 0.00 0.00 0.00 60 1015.2
20260905044002 66 0.0 0.0 0.00 0.00 0.00 66 1015.4
20260905043003 66 0.0 0.0 0.00 0.00 0.00 66 1014.8
20260905042003 66 0.0 0.0 0.00 0.00 0.00 69 1015.1
20260905041003 66 0.0 0.0 0.00 0.00 0.00 70 1014.4
20260905040002 66 0.0 0.0 0.00 0.00 0.00 74 1014.4
20260905035002 66 0.0 0.0 0.00 0.00 0.00 74 1014.4
20260905034003 66 0.0 0.0 0.00 0.00 0.00 76 1014.4
20260905033003 66 0.0 0.0 0.00 0.00 0.00 76 1014.0
20260905032003 66 0.0 0.0 0.00 0.00 0.00 75 1014.1
20260905031002 66 0.0 0.0 0.00 0.00 0.00 74 1013.9
20260905030002 66 0.0 0.0 0.00 0.00 0.00 74 1013.4
20260905025003 66 0.0 0.0 0.00 0.00 0.00 73 1013.7
20260905024003 66 0.0 0.0 0.00 0.00 0.00 72 1013.6
20260905023003 67 0.0 0.0 0.00 0.00 0.00 72 1013.6
20260905022003 67 0.0 0.0 0.00 0.00 0.00 72 1014.0
20260905021002 67 0.0 0.0 0.00 0.00 0.00 72 1013.9
20260905020003 67 0.0 0.0 0.00 0.00 0.00 73 1013.6
20260905015003 67 0.0 0.0 0.00 0.00 0.00 72 1013.7
20260905014003 67 0.0 0.0 0.00 0.00 0.00 72 1013.8
20260905013002 67 0.0 0.0 0.00 0.00 0.00 70 1013.6
20260905012003 67 0.0 0.0 0.00 0.00 0.00 71 1013.6
20260905011003 67 0.0 0.0 0.00 0.00 0.00 70 1013.6
20260905010003 68 0.0 0.0 0.00 0.00 0.00 70 1013.4
20260905005003 68 0.0 0.0 0.00 0.00 0.00 70 1013.4
20260905004002 67 0.0 0.0 0.00 0.00 0.00 69 1013.1
20260905003003 67 0.0 0.0 0.00 0.00 0.00 69 1013.1
20260905002003 68 0.0 0.0 0.00 0.00 0.00 68 1013.1
20260905001003 68 0.0 0.0 0.00 0.00 0.00 68 1013.0
20260905000003 68 0.0 0.0 0.00 0.00 0.00 68 1012.8
20260904235002 68 0.0 0.0 0.00 0.00 0.00 68 1012.8
20260904234003 68 0.0 0.0 0.00 0.00 0.00 68 1012.6
20260904233003 68 0.0 0.0 0.00 0.00 0.00 68 1012.6
20260904232003 68 0.0 0.0 0.00 0.00 0.00 68 1012.4
20260904231002 68 0.0 0.0 0.00 0.00 0.00 68 1012.5
20260904230002 69 0.0 0.0 0.00 0.00 0.00 68 1012.4
20260904225003 69 0.0 0.0 0.00 0.00 0.00 68 1012.2
20260904224003 70 0.0 0.0 0.00 0.00 0.00 68 1012.2
20260904223002 70 0.0 0.0 0.00 0.00 0.00 67 1012.0
20260904222002 70 0.0 0.0 0.00 0.00 0.00 66 1011.6
20260904221003 71 0.0 0.0 0.00 0.00 0.00 64 1011.4
20260904220003 72 0.0 0.0 0.00 0.00 0.00 62 1011.2
20260904215003 73 0.0 0.0 0.00 0.00 0.00 61 1011.0
20260904214002 76 0.0 0.0 0.00 0.00 0.00 58 1010.8
20260904213002 76 0.0 0.0 0.00 0.00 0.00 55 1010.0
20260904212003 76 0.0 0.0 0.00 0.00 0.00 54 1009.6
20260904211003 76 0.0 0.0 0.00 0.00 0.00 56 1009.7
20260904210003 76 0.0 0.0 0.00 0.00 0.00 56 1009.8
20260904205002 76 0.0 0.0 0.00 0.00 0.00 55 1009.6
20260904204002 76 0.0 0.0 0.00 0.00 0.00 54 1009.6
20260904203003 77 0.0 0.0 0.00 0.00 0.00 54 1009.5
20260904202003 77 0.0 0.0 0.00 0.00 0.00 54 1009.5
20260904201003 78 0.0 0.0 0.00 0.00 0.00 54 1009.4
20260904200002 78 0.0 0.0 0.00 0.00 0.00 54 1009.4
20260904195003 77 0.0 0.0 0.00 0.00 0.00 56 1009.7
20260904194003 76 0.0 0.0 0.00 0.00 0.00 56 1010.0
20260904193003 77 0.0 0.0 0.00 0.00 0.00 55 1010.0
20260904192002 77 0.0 0.0 0.00 0.00 0.00 56 1010.1
20260904191002 77 0.0 0.0 0.00 0.00 0.00 55 1010.4
20260904190003 77 0.0 0.0 0.00 0.00 0.00 56 1010.6
20260904185003 77 0.0 0.0 0.00 0.00 0.00 55 1010.6
20260904184003 78 0.0 0.0 0.00 0.00 0.00 54 1010.5
20260904183002 79 0.0 0.0 0.00 0.00 0.00 52 1010.6
20260904182002 79 0.0 0.0 0.00 0.00 0.00 51 1010.6
20260904181003 79 0.0 0.0 0.00 0.00 0.00 52 1010.5
20260904180003 79 0.0 0.0 0.00 0.00 0.00 52 1010.2
20260904175003 78 0.0 0.0 0.00 0.00 0.00 52 1010.0
20260904174002 78 0.0 0.0 0.00 0.00 0.00 53 1009.6
20260904173002 79 0.0 0.0 0.00 0.00 0.00 52 1009.8
20260904172003 80 0.0 0.0 0.00 0.00 0.00 51 1009.8
20260904171003 80 0.0 0.0 0.00 0.00 0.00 50 1009.8
20260904170002 80 0.0 0.0 0.00 0.00 0.00 50 1009.6
20260904165002 81 0.0 0.0 0.00 0.00 0.00 49 1010.0
20260904164002 82 0.0 0.0 0.00 0.00 0.00 48 1009.8
20260904163003 82 0.0 0.0 0.00 0.00 0.00 48 1009.8
20260904162003 82 0.0 0.0 0.00 0.00 0.00 47 1010.0
20260904161002 82 0.0 0.0 0.00 0.00 0.00 48 1010.1